Weather History for London, United Kingdom

Change the Weather History Date:

Tuesday, January 10, 2012

  Actual Average Record
Temperature  
Mean Temperature 50 °F -  
Max Temperature 52 °F 45 °F 55 °F (1998)
Min Temperature 47 °F 35 °F 24 °F (2009)
Degree Days  
Heating Degree Days 16    
Moisture  
Dew Point 46 °F    
Average Humidity 85    
Maximum Humidity 93    
Minimum Humidity 74    
Precipitation  
Precipitation 0.00 in - - ()
Sea Level Pressure  
Sea Level Pressure 30.51 in    
Wind  
Wind Speed 9 mph ()    
Max Wind Speed 16 mph    
Max Gust Speed -    
Visibility 6.8 miles    
Events Rain    
Averages and records for this station are not official NWS values.
T = Trace of Precipitation, MM = Missing Value Source: Averaged Metar Reports

Daily Weather History Graph

Daily Weather History Graph

Search for Another Location

Airport:

Trip Planner

Search our weather history database for the weather conditions in past years. The results will help you decide how hot, cold, wet, or windy it might be!

Date:

Astronomy

Jan. 10, 2012 Rise Set
Actual Time 8:04 AM GMT 4:14 PM GMT
Civil Twilight 7:25 AM GMT 4:53 PM GMT
Nautical Twilight 6:43 AM GMT 5:35 PM GMT
Astronomical Twilight 6:02 AM GMT 6:15 PM GMT
Moon 6:04 PM GMT (1/10) 8:21 AM GMT (1/10)
Length of Visible Light 9h 27m
Length of Day
8h 09m
Full, 98% of the Moon is Illuminated
Jan 10
Full
Jan 16
Last Quarter
Jan 23
New
Jan 31
First Quarter
Feb 7
Full

Hourly Weather History & Observations

Time (GMT) Temp. Dew Point Humidity Pressure Visibility Wind Dir Wind Speed Gust Speed Precip Events Conditions
12:20 AM 50.0 °F 44.6 °F 82% 30.51 in 6.2 mi West 8.1 mph - N/A   Mostly Cloudy
12:50 AM 48.2 °F 46.4 °F 93% 30.51 in 6.2 mi West 5.8 mph - N/A   Mostly Cloudy
1:20 AM 48.2 °F 44.6 °F 87% 30.51 in 6.2 mi West 5.8 mph - N/A   Mostly Cloudy
1:50 AM 48.2 °F 46.4 °F 93% 30.51 in 6.2 mi West 3.5 mph - N/A   Mostly Cloudy
2:20 AM 48.2 °F 46.4 °F 93% 30.51 in 3.7 mi SW 6.9 mph - N/A   Drizzle
2:50 AM 49 °F 47 °F 92% 30.52 in 8 mi SSW 5.8 mph - - Rain Light Drizzle
2:50 AM 48.2 °F 46.4 °F 93% 30.51 in 3.7 mi SW 4.6 mph - N/A   Mostly Cloudy
3:20 AM 48.2 °F 46.4 °F 93% 30.51 in 3.7 mi SSW 4.6 mph - N/A   Mostly Cloudy
3:50 AM 48.2 °F 46.4 °F 93% 30.51 in 6.2 mi SW 8.1 mph - N/A   Mostly Cloudy
4:20 AM 48.2 °F 46.4 °F 93% 30.51 in 6.2 mi WSW 8.1 mph - N/A   Mostly Cloudy
4:50 AM 48.2 °F 46.4 °F 93% 30.51 in 6.2 mi SW 9.2 mph - N/A   Scattered Clouds
5:20 AM 48.2 °F 46.4 °F 93% 30.51 in 6.2 mi SW 8.1 mph - N/A   Scattered Clouds
5:50 AM 48 °F 47 °F 93% 30.51 in 15 mi SW 9.2 mph - -  
5:50 AM 48.2 °F 46.4 °F 93% 30.51 in 6.2 mi SW 10.4 mph - N/A   Mostly Cloudy
6:20 AM 48.2 °F 46.4 °F 93% 30.51 in 6.2 mi WSW 8.1 mph - N/A   Scattered Clouds
6:50 AM 48.2 °F 46.4 °F 93% 30.51 in 6.2 mi WSW 9.2 mph - N/A   Mostly Cloudy
7:20 AM 48.2 °F 46.4 °F 93% 30.51 in 6.2 mi WSW 9.2 mph - N/A   Mostly Cloudy
7:50 AM 48.2 °F 44.6 °F 87% 30.51 in 6.2 mi WSW 8.1 mph - N/A   Mostly Cloudy
8:20 AM 48.2 °F 44.6 °F 87% 30.51 in 6.2 mi WSW 9.2 mph - N/A   Mostly Cloudy
8:50 AM 49 °F 46 °F 87% 30.52 in 19 mi SW 9.2 mph - -   Mostly Cloudy
8:50 AM 50.0 °F 46.4 °F 87% 30.51 in 6.2 mi WSW 11.5 mph - N/A   Mostly Cloudy
9:20 AM 50.0 °F 46.4 °F 87% 30.51 in 6.2 mi WSW 11.5 mph - N/A   Mostly Cloudy
9:50 AM 50.0 °F 46.4 °F 87% 30.54 in 6.2 mi WSW 12.7 mph - N/A   Mostly Cloudy
10:20 AM 50.0 °F 46.4 °F 87% 30.54 in 6.2 mi WSW 12.7 mph - N/A   Mostly Cloudy
10:50 AM 50.0 °F 46.4 °F 87% 30.54 in 6.2 mi West 13.8 mph - N/A   Mostly Cloudy
11:20 AM 51.8 °F 46.4 °F 82% 30.51 in 6.2 mi West 16.1 mph - N/A   Scattered Clouds
11:50 AM 51 °F 47 °F 83% 30.51 in 22 mi WSW 13.8 mph - -   Mostly Cloudy
11:50 AM 51.8 °F 46.4 °F 82% 30.51 in 6.2 mi WSW 13.8 mph - N/A   Scattered Clouds
12:20 PM 51.8 °F 46.4 °F 82% 30.51 in 6.2 mi West 13.8 mph - N/A   Mostly Cloudy
12:50 PM 51.8 °F 46.4 °F 82% 30.51 in 6.2 mi West 13.8 mph - N/A   Scattered Clouds
1:20 PM 51.8 °F 46.4 °F 82% 30.51 in 6.2 mi West 13.8 mph - N/A   Mostly Cloudy
1:50 PM 51.8 °F 46.4 °F 82% 30.51 in 6.2 mi WSW 15.0 mph - N/A   Mostly Cloudy
2:20 PM 51.8 °F 46.4 °F 82% 30.51 in 6.2 mi West 15.0 mph - N/A   Mostly Cloudy
2:50 PM 52 °F 46 °F 75% 30.50 in 22 mi WSW 15.0 mph - -   Mostly Cloudy
2:50 PM 51.8 °F 46.4 °F 82% 30.51 in 6.2 mi West 13.8 mph - N/A   Mostly Cloudy
3:20 PM 51.8 °F 46.4 °F 82% 30.51 in 6.2 mi WSW 12.7 mph - N/A   Mostly Cloudy
3:50 PM 51.8 °F 46.4 °F 82% 30.48 in 6.2 mi WSW 12.7 mph - N/A   Mostly Cloudy
4:20 PM 51.8 °F 46.4 °F 82% 30.48 in 6.2 mi WSW 10.4 mph - N/A   Mostly Cloudy
4:50 PM 51.8 °F 44.6 °F 76% 30.51 in 6.2 mi WSW 10.4 mph - N/A   Mostly Cloudy
5:20 PM 51.8 °F 44.6 °F 76% 30.51 in 6.2 mi West 9.2 mph - N/A   Mostly Cloudy
5:50 PM 51 °F 46 °F 76% 30.51 in 22 mi West 8.1 mph - -   Overcast
5:50 PM 51.8 °F 44.6 °F 76% 30.51 in 6.2 mi West 10.4 mph - N/A   Mostly Cloudy
6:20 PM 50.0 °F 44.6 °F 82% 30.51 in 6.2 mi West 10.4 mph - N/A   Mostly Cloudy
6:50 PM 50.0 °F 44.6 °F 82% 30.51 in 6.2 mi West 11.5 mph - N/A   Mostly Cloudy
7:20 PM 50.0 °F 44.6 °F 82% 30.51 in 6.2 mi West 12.7 mph - N/A   Mostly Cloudy
7:50 PM 50.0 °F 44.6 °F 82% 30.51 in 6.2 mi West 10.4 mph - N/A   Mostly Cloudy
8:20 PM 50.0 °F 44.6 °F 82% 30.51 in 6.2 mi WSW 10.4 mph - N/A   Mostly Cloudy
8:50 PM 50 °F 44 °F 74% 30.53 in 22 mi WSW 10.4 mph - -   Overcast
8:50 PM 50.0 °F 44.6 °F 82% 30.51 in 6.2 mi West 11.5 mph - N/A   Mostly Cloudy
9:20 PM 50.0 °F 42.8 °F 76% 30.51 in 6.2 mi West 10.4 mph - N/A   Mostly Cloudy
9:50 PM 50.0 °F 42.8 °F 76% 30.54 in 6.2 mi West 11.5 mph - N/A   Mostly Cloudy
10:20 PM 50.0 °F 42.8 °F 76% 30.54 in 6.2 mi WSW 11.5 mph - N/A   Mostly Cloudy
10:50 PM 50.0 °F 42.8 °F 76% 30.54 in 6.2 mi WSW 12.7 mph - N/A   Mostly Cloudy
11:20 PM 48.2 °F 42.8 °F 82% 30.51 in 6.2 mi WSW 10.4 mph - N/A   Scattered Clouds
11:50 PM 47 °F 43 °F 81% 30.52 in 19 mi SW 8.1 mph - -   Scattered Clouds
11:50 PM 48.2 °F 42.8 °F 82% 30.51 in 6.2 mi SW 9.2 mph - N/A   Scattered Clouds